Regional Weather Roundup
Issued by NWS

Home | Current Version | Previous Version | Graphics & Text | Print | Product List | Glossary On
Versions: 1 2 3 4 5 6 7 8 9 10 11 12 13 14 15 16 17 18 19 20 21 22 23 24 25 26 27 28 29 30 31 32 33 34 35 36 37 38 39 40 41 42 43 44 45 46 47 48 49 50
000
ASUS43 KDMX 290607
RWRIA

WEATHER ROUNDUP FOR IOWA
NATIONAL WEATHER SERVICE DES MOINES IA
100 AM CDT MON JUN 29 2015

NOTE: "FAIR" INDICATES FEW OR NO CLOUDS BELOW 12,000 FEET WITH NO
SIGNIFICANT WEATHER AND/OR OBSTRUCTIONS TO VISIBILITY.

* - THESE STATIONS ARE NOT NWS STATIONS...THUS NOT UNDER NWS
QUALITY CONTROL.  THEY ALSO DO NOT REPORT WEATHER SUCH
AS PRECIPITATION OR FOG.

IAZ001>003-012>014-020>022-031>034-043>046-290700-
   NORTHWEST IOWA

CITY           SKY/WX    TMP DP  RH WIND       PRES   REMARKS
CARROLL *      PTCLDY    68  63  83 NW8       29.88S
CHEROKEE *     CLEAR     62  60  95 CALM      29.89S
DENISON *      PTCLDY    66  59  77 CALM      29.88S
LE MARS *        N/A     63  61  94 CALM      29.91S
ORANGE CITY *  CLEAR     63  57  82 CALM      29.91R
SHELDON *      PTCLDY    63  63 100 CALM      29.89S
SIOUX CITY     CLEAR     68  58  70 CALM      29.90S
6HR MIN TEMP:  66; 6HR MAX TEMP:  84;

SPENCER        CLEAR     62  59  90 W5        29.88S
6HR MIN TEMP:  61; 6HR MAX TEMP:  81;

STORM LAKE *   CLEAR     64  59  82 NW8       29.90S
$$

IAZ055>058-069>071-079>083-090>094-290700-
   SOUTHWEST IOWA

CITY           SKY/WX    TMP DP  RH WIND       PRES   REMARKS
ATLANTIC *     CLEAR     64  61  88 CALM      29.89S
AUDUBON *      CLEAR     66  61  82 CALM      29.90R
CLARINDA *     CLEAR     66  64  94 CALM      29.89S
COUNCIL BLFS * CLEAR     70  59  68 NW5       29.91S
CRESTON *      CLEAR     66  63  88 NW8       29.87S
HARLAN  *      CLEAR     64  64 100 N6        29.93R
LAMONI         CLEAR     69  64  84 NW7       29.85S
6HR MIN TEMP:  69; 6HR MAX TEMP:  83;

RED OAK *      CLEAR     70  63  78 NW9       29.89S
SHENANDOAH *     N/A     66  63  88 W3        29.90S HAZE
$$

IAZ047>049-059>061-072>074-084-290700-
   CENTRAL IOWA

CITY           SKY/WX    TMP DP  RH WIND       PRES   REMARKS
AMES           CLEAR     65  63  93 W6        29.83F
6HR MIN TEMP:  65; 6HR MAX TEMP:  78;

ANKENY *       CLEAR     66  66 100 CALM      29.83S
CHARITON *     PTCLDY    66  64  94 N6        29.84R
DES MOINES     CLEAR     71  64  78 N6        29.83S
6HR MIN TEMP:  71; 6HR MAX TEMP:  82;

GRINNELL*      FOG       64  63  96 W3        29.83F VSB<1/4
KNOXVILLE *    CLEAR     66  64  94 NW5       29.82S
MARSHALLTOWN   FOG       63  63 100 NW6       29.82S VSB 1/2
6HR MIN TEMP:  63; 6HR MAX TEMP:  76; 6HR PCP:  0.05;

PELLA *          N/A     64  64 100 CALM      29.84S FOG
PERRY *          N/A     66  64  94 NW5       29.86S
$$

IAZ004>006-015-016-023>025-035-036-290700-
   NORTH CENTRAL IOWA

CITY           SKY/WX    TMP DP  RH WIND       PRES   REMARKS
ALGONA *       CLEAR     64  63  94 W6        29.86S
CLARION *      CLEAR     63  61  94 W5        29.85S
ESTHERVILLE    CLEAR     63  60  90 W7        29.86S
6HR MIN TEMP:  62; 6HR MAX TEMP:  78;

FORT DODGE *   CLEAR     64  63  94 CALM      29.87S
MASON CITY     CLOUDY    63  61  93 NW5       29.86S
6HR MIN TEMP:  61; 6HR MAX TEMP:  79; 6HR PCP:  0.12;

FOREST CITY *  CLOUDY    61  61 100 CALM      29.85S
IOWA FALLS *     N/A     63  61  94 W5        29.85S
$$

IAZ007>011-017>019-026>030-037>042-050>054-066-290700-
   NORTHEAST IOWA

CITY           SKY/WX    TMP DP  RH WIND       PRES   REMARKS
CEDAR RAPIDS   CLEAR     62  62 100 CALM      29.81F
6HR MIN TEMP:  62; 6HR MAX TEMP:  69;

CHARLES CITY * MOCLDY    61  61 100 NW5       29.83F FOG
CLINTON *      CLOUDY    63  61  94 NE3       29.83F VSB 1/4
DECORAH *        N/A    N/A N/A N/A MISG        N/A
DUBUQUE        MOCLDY    60  59  96 CALM      29.82F FOG
6HR MIN TEMP:  59; 6HR MAX TEMP:  67;

MONTICELLO *   FOG       61  61 100 CALM      29.82S VSB 0
OELWEIN *      FOG       61  61 100 CALM      29.83S VSB 1/4
WATERLOO       FOG       62  62 100 CALM      29.82S VSB 1/4
6HR MIN TEMP:  62; 6HR MAX TEMP:  73; 6HR PCP:  0.03;

$$

IAZ064-065-067-068-078-290700-
   EAST CENTRAL IOWA

CITY           SKY/WX    TMP DP  RH WIND       PRES   REMARKS
DAVENPORT      FOG       61  60  97 CALM      29.81S VSB 1/4
6HR MIN TEMP:  61; 6HR MAX TEMP:  66; 6HR PCP: TRACE;

IOWA CITY      CLEAR     63  61  93 CALM      29.82S
6HR MIN TEMP:  62; 6HR MAX TEMP:  70;

MT. PLEASANT *   N/A     64  61  89 N5        29.80S FOG
MUSCATINE *    CLOUDY    64  63  94 CALM      29.80F
QUAD CITIES    PTCLDY    62  60  93 CALM      29.80S
6HR MIN TEMP:  62; 6HR MAX TEMP:  68;

$$

IAZ062-063-075>077-085>089-095>099-290700-
   SOUTHEAST IOWA

CITY           SKY/WX    TMP DP  RH WIND       PRES   REMARKS
BURLINGTON     MOCLDY    63  63 100 CALM      29.78F
6HR MIN TEMP:  63; 6HR MAX TEMP:  74;

FAIRFIELD *    MOCLDY    64  63  94 NE6       29.81S
FORT MADISON * FOG       63  63 100 CALM      29.80F VSB 3/4
KEOKUK *       MOCLDY    66  64  94 CALM      29.78S
OSKALOOSA *    FOG       65  64  97 CALM      29.83R VSB 1/4
OTTUMWA        FOG       66  66 100 NE5       29.80S VSB 1/4
6HR MIN TEMP:  66; 6HR MAX TEMP:  77; 6HR PCP:  0.43;

WASHINGTON *   CLOUDY    66  66 100 CALM      29.83R
$$

ABBREVIATIONS USED IN REMARKS
   TC - TEMPERATURES IN CELSIUS
  WCI - WIND CHILL INDEX
   HX - HEAT INDEX
  VSB - VISIBILITY
$$




USA.gov is the U.S. government's official web portal to all federal, state and local government web resources and services.